Weather History for Sitka, AK

Change the Weather History Date:

Monday, April 22, 2013

  Actual Average Record
Temperature  
Mean Temperature 42 °F -  
Max Temperature 46 °F 49 °F 62 °F (1977)
Min Temperature 39 °F 37 °F 29 °F (1954)
Degree Days  
Heating Degree Days 22    
Moisture  
Dew Point 34 °F    
Average Humidity 70    
Maximum Humidity 82    
Minimum Humidity 56    
Precipitation  
Precipitation 0.00 in - - ()
Sea Level Pressure  
Sea Level Pressure 30.59 in    
Wind  
Wind Speed 4 mph (South)    
Max Wind Speed 13 mph    
Max Gust Speed -    
Visibility 10 miles    
Events      
Averages and records for this station are not official NWS values.
T = Trace of Precipitation, MM = Missing Value Source: NWS Daily Summary

Daily Weather History Graph

Daily Weather History Graph

Search for Another Location

Airport:

Trip Planner

Search our weather history database for the weather conditions in past years. The results will help you decide how hot, cold, wet, or windy it might be!

Date:

Astronomy

Apr. 22, 2013 Rise Set
Actual Time 5:34 AM AKDT 8:27 PM AKDT
Civil Twilight 4:50 AM AKDT 9:10 PM AKDT
Nautical Twilight 3:52 AM AKDT 10:09 PM AKDT
Astronomical Twilight 2:33 AM AKDT 11:31 PM AKDT
Moon 4:51 PM AKDT (4/22) 4:11 AM AKDT (4/22)
Length of Visible Light 16h 20m
Length of Day
14h 52m
Waxing Gibbous, 89% of the Moon is Illuminated
Apr 22
Waxing Gibbous
Apr 25
Full
May 2
Last Quarter
May 9
New
May 17
First Quarter

Hourly Weather History & Observations

Time (AKDT) Temp. Windchill Dew Point Humidity Pressure Visibility Wind Dir Wind Speed Gust Speed Precip Events Conditions
12:53 AM 39.9 °F 37.8 °F 30.0 °F 68% 30.56 in 10.0 mi SE 3.5 mph - N/A   Overcast
1:53 AM 39.9 °F 36.7 °F 30.9 °F 70% 30.58 in 10.0 mi SE 4.6 mph - N/A   Overcast
2:53 AM 39.0 °F 35.7 °F 30.9 °F 73% 30.57 in 10.0 mi ESE 4.6 mph - N/A   Overcast
3:53 AM 39.0 °F - 30.9 °F 73% 30.56 in 10.0 mi Calm Calm - N/A   Overcast
4:53 AM 39.9 °F - 30.0 °F 68% 30.58 in 10.0 mi Calm Calm - N/A   Overcast
5:53 AM 39.9 °F 36.7 °F 32.0 °F 73% 30.57 in 10.0 mi East 4.6 mph - N/A   Overcast
6:53 AM 41.0 °F - 28.9 °F 62% 30.57 in 10.0 mi Calm Calm - N/A   Overcast
7:53 AM 41.0 °F 38.0 °F 30.9 °F 67% 30.57 in 10.0 mi East 4.6 mph - N/A   Overcast
8:53 AM 43.0 °F 41.3 °F 28.0 °F 56% 30.58 in 10.0 mi SE 3.5 mph - N/A   Overcast
9:53 AM 44.1 °F 42.5 °F 30.9 °F 60% 30.58 in 10.0 mi SSE 3.5 mph - N/A   Overcast
10:53 AM 45.0 °F - 30.0 °F 56% 30.59 in 10.0 mi Calm Calm - N/A   Overcast
11:53 AM 46.0 °F 41.4 °F 34.0 °F 63% 30.60 in 10.0 mi SW 9.2 mph - N/A   Overcast
12:53 PM 46.0 °F 41.0 °F 34.0 °F 63% 30.60 in 10.0 mi SW 10.4 mph - N/A   Overcast
1:53 PM 46.0 °F 40.2 °F 36.0 °F 68% 30.60 in 10.0 mi SW 12.7 mph - N/A   Overcast
2:53 PM 46.0 °F 40.2 °F 39.0 °F 76% 30.59 in 10.0 mi SW 12.7 mph - N/A   Overcast
3:53 PM 46.0 °F 40.2 °F 39.0 °F 76% 30.59 in 10.0 mi SW 12.7 mph - N/A   Overcast
4:53 PM 46.0 °F 41.0 °F 37.9 °F 73% 30.59 in 10.0 mi WSW 10.4 mph - N/A   Overcast
5:53 PM 46.0 °F 43.9 °F 37.0 °F 71% 30.59 in 10.0 mi WNW 4.6 mph - N/A   Overcast
6:53 PM 46.0 °F 44.8 °F 36.0 °F 68% 30.59 in 10.0 mi SW 3.5 mph - N/A   Overcast
7:53 PM 46.0 °F 43.9 °F 37.9 °F 73% 30.59 in 10.0 mi WSW 4.6 mph - N/A   Overcast
8:53 PM 45.0 °F 41.8 °F 37.9 °F 76% 30.59 in 10.0 mi SW 5.8 mph - N/A   Overcast
9:53 PM 44.1 °F - 39.0 °F 82% 30.60 in 10.0 mi Calm Calm - N/A   Clear
10:53 PM 41.0 °F - 36.0 °F 82% 30.61 in 10.0 mi Calm Calm - N/A   Clear
11:53 PM 39.0 °F 35.7 °F 33.1 °F 79% 30.61 in 10.0 mi East 4.6 mph - N/A   Partly Cloudy